FENGYUN 1C DEB, 31804

Orbit data source: Space-Track

FENGYUN 1C DEB, 31804 is space debris in SSO originally from a launch on Mon, 10 May 1999 UTC launched from the Taiyaun Space Center, China (TSC). Fengyun 1C debris stems from the Chinese weather satellite Fengyun-1C, which was intentionally destroyed by a Chinese anti-satellite missile in 2007. This event dramatically increased the amount of space debris, with thousands of trackable fragments posing hazards to satellites and human spaceflight. The Fengyun 1C debris cloud has become a focal point in discussions about space sustainability and the need for international regulations to prevent the creation of new debris.

Loading next visibility...
Identifier
31804, 1999-025CGS
Orbit
SSO
Country
Flag of CNCN / PRC
Related business
Manufacturer
Unknown
Mission
Spacecraft
Bus & Motor
Unknown
Mass
Unknown
Launch date (UTC)
1999-05-10 (27 years ago)
Launch vehicle
Unknown
Launch site
Taiyaun Space Center, China (TSC)
Object type
Payload
Rocket body
Debris
Shape & HBR
Unknown shape, 1.1 m
Radar Cross Section
Small (<0.1 m²)

Expand to show TLE details & history
Last TLE update: 7 months ago

TLE from 7 months ago
0 FENGYUN 1C DEB
1 31804U 99025CGS 25193.27806805  .00002399  00000-0  12405-2 0  9994
2 31804  98.2737  13.8185 0141519 225.3051 133.6524 14.10800699614978
Epoch: 2025-07-12T06:40Z
TLE epoch observation values (Epoch: 2025-07-12T06:40:25.079Z)
Latitude
-0.00003°
Longitude
-16.70393°
Altitude
930.985 km
Speed
7.35 km/s
True Right ascension
00h 55m 16s
True Declination
0° 00' 00"
Sunlit
Object was in daylight at epoch
Visualization orbit readout
Latitude
Unknown
Longitude
Unknown
Altitude
Unknown
Speed
Unknown
Apparent Right ascension
Unknown
Apparent Declination
Unknown
Sunlit
N/A
Visualization observer readout
Local Sidereal Time
10:27:23
Azimuth
Unknown
Elevation
Unknown
Doppler factor
Unknown
Orbital elements
Apogee altitude
956.128 km
Perigee altitude
751.437 km
Semi-major axis
7,231.92 km
Eccentricity
0.01415
Inclination
98.2737°
RAAN
13.8185°
Arg. of periapsis
225.3051°
True anomaly
134.81152°
Mean anomaly
133.6524°
Eccentric anomaly
134.23337°
Mean motion
3.52909 °/min
Orbital period
102.01 mins
BSTAR
0.0012405
Loading maneuver chart data...
Computing Atmospheric mass density...

Documentation

Showing up to 5 results
|